www.pogodaiklimat.ru
ПОГОДА в Дестине
Время
и дата
12:53 29.11
13:53 29.11
14:31 29.11
14:53 29.11
15:53 29.11
16:53 29.11
17:53 29.11
18:53 29.11
19:53 29.11
20:53 29.11
21:53 29.11
22:53 29.11
23:53 29.11
00:17 30.11
00:53 30.11
01:53 30.11
02:53 30.11
03:53 30.11
04:19 30.11
04:53 30.11
05:04 30.11
05:25 30.11
05:53 30.11
06:37 30.11
06:45 30.11
06:53 30.11
07:01 30.11
07:05 30.11
07:16 30.11
07:18 30.11
07:22 30.11
07:38 30.11
07:46 30.11
07:53 30.11
07:59 30.11
08:02 30.11
08:24 30.11
08:33 30.11
08:37 30.11
08:46 30.11
08:53 30.11
09:01 30.11
09:53 30.11
10:53 30.11
11:53 30.11
12:06 30.11
12:19 30.11
12:53 30.11
Ветер
(напр.,м/с)
Видим. Явления Облачность Т
(С)
Тd
(С)
f
(%)
Тe
(С)
Тes
(С)
Комфортность P
(гПа)
Po
(гПа)
Тmin
(С)
Tmax
(С)
R
(мм)
R24
(мм)
S
(см)
ЮВ 8
{12}
16 км 10/5 750 m
[Ac]
+23.9 +18.3 71 +28 +29 душно 1016.1 1015.4
ЮВ 7
{13}
16 км 5/0 3300 m
[Ac]
+23.9 +18.9 74 +29 +30 душно 1015.8 1015.1
ЮВ 7
{10}
16 км 8/8 780 m
[Ac]
+23.3 +18.3 73 +29 +29 душно 1014.7
ЮВ 7
{11}
16 км 10/10 750 м +23.9 +18.9 74 +29 +29 душно 1015.5 1014.7
ЮВ 8
{11}
16 км 10/10 750 м +23.3 +18.9 76 +30 +30 очень
душно
1015.0 1014.4
ЮВ 6 16 км 5/5 870 м +22.8 +18.9 79 +29 +29 очень
душно
1015.3 1014.7
ЮВ 6 16 км 8/2 1140 m
[Ac]
+22.8 +18.9 79 +29 +29 очень
душно
1015.6 1014.7 +22.8 +25.0
ЮВ 6 16 км 5/0 2100 m
[Ac]
1015.6 1014.7
ЮВ 4 16 км 8/0 2550 m
[Ac]
1016.0 1015.1
ЮВ 5 16 км 10/8 960 m
[Ac]
+23.9 +20.0 79 +29 +29 душно 1016.0 1015.4
ЮВ 4 16 км 10/2 1800 m
[Ac]
+23.9 +20.0 79 +29 +29 душно 1015.8 1015.1
Ю 5
{9}
16 км 5/0 2400 m
[Ac]
+24.4 +20.0 76 +30 +30 очень
душно
1015.4 1014.7
Ю 5
{11}
16 км 8/0 2850 m
[Ac]
+25.0 +20.0 74 +31 +31 очень
душно
1015.0 1014.4
Ю 6
{11}
16 км 8/8 570 m
[Ac]
+25.0 +20.6 77 +31 +31 очень
душно
1014.1
Ю 4
{9}
16 км 10/10 660 м +25.0 +21.1 79 +32 +32 очень
душно
1015.0 1014.4
Ю 5
{9}
16 км 10/10 570 м +25.0 +21.1 79 +32 +32 очень
душно
1014.6 1013.7
Ю 3
{8}
14 км 10/10 510 м +25.0 +21.7 82 +32 +32 очень
душно
1015.1 1014.4
Ю 4
{8}
11 км 10/10 540 м 1014.6 1013.7
ЮЗ 4 11 км 5/5 540 m
[Ac]
1014.1
нст 2 11 км 5/5 630 m
[Ac]
1015.0 1014.1
ЮЗ 4 10 км мгла 8/8 630 м 1014.1
ЮЗ 4 11 км 5/5 660 m
[Ac]
1014.4
ЮЗ 4 14 км 5/2 690 m
[Ac]
1015.3 1014.4
нст 3
{10}
4 км слабый дождь 8/2 1140 m
[Ac Ns]
1014.7
нст 3 11 км 10/2 1200 m
[Ac]
1014.7
ЮЗ 4 6 км мгла 10/2 960 m
[Ac]
1015.6 1014.7
нст 3 4 км слабый дождь 10/2 660 m
[Ac Ns]
1014.7
ЮЗ 4 10 км гроза, мгла 10/5 780 m
[Ac Cb]
1014.7
З 4 11 км гроза 10/8 540 m
[Ac Cb]
1015.4
З 7
{13}
4 км гроза, дымка 10/8 540 m
[Ac Cb]
1016.1
З 6
{14}
1 км гроза с сильным дождем 10/10 510 m
[Cb]
1016.1
З 4
{14}
1 км гроза с сильным дождем 10/10 480 m
[Cb]
нст 3
{9}
2 км гроза с сильным дождем 10/10 420 m
[Cb]
З 4
{9}
2 км гроза с сильным дождем 10/8 1320 m
[Ac Cb]
1018.0
нст 3
{9}
3 км гроза со слабым дождем 10/8 180 m
[Ac Cb]
нст 3 5 км гроза, слабый дождь 10/8 180 m
[Ac Cb]
З 3 5 км гроза со слабым дождем 10/2 210 m
[Ac Cb]
нст 3 5 км дождь 10/8 420 m
[Ac Ns]
нст 3 4 км гроза, дождь, дымка 10/8 420 m
[Ac Cb]
+18.9 +18.9 100
З 4 6 км гроза со слабым дождем, дымка 10/8 420 m
[Ac Cb]
+18.9 +18.9 100
нст 3 6 км гроза с дождем, дымка 10/8 450 m
[Ac Cb]
+18.9 +18.9 100 1019.0 21.1
СЗ 2 6 км дождь, дымка 10/8 600 m
[Ac Ns]
+19.4 +18.9 97 +22 +23 комфорт 1018.1
нст 2 14 км слабый дождь 10/0 2850 m
[Ac As]
+19.4 +18.9 97 +22 +23 комфорт 1019.8 1019.1
С 4 16 км 5/2 1950 m
[Ac]
+19.4 +18.9 97 +22 +24 комфорт 1019.3 1018.5
С 4 16 км 2/2 600 м +20.0 +18.9 93 +23 +27 комфорт 1019.4 1018.8 23.4
С 3 16 км 8/8 600 м +20.0 +18.9 93 +24 +25 комфорт 1018.8
С 3 16 км 5/5 600 м +20.0 +18.9 93 +24 +27 комфорт 1018.8
С 4 16 км ясно +21.1 +18.9 87 +25 +31 комфорт 1019.2 1018.5
Местоположение метеостанции Destin-Ft. Walton Beach Airport: широта 30.3933 долгота -86.4675 высота над уровнем моря 6 м.
В архиве по умолчанию представлена погода в Дестине за последние 1-2 суток. Обновление информации о фактической погоде в базе происходит ежечасно! Архивные данные за месяц целиком и за предыдущие месяцы Вы можете получить, выбрав интересующий диапазон дат из раскрывающегося списка и нажав кнопку "Ввод!".
Внимание! Архив погоды МЕТАР в базе сайта по станциям, не включенным в климатический монитор, хранится не более 60 дней. Нет смысла пытаться выбрать более раннюю дату.
*Определитесь, кто Вы:
Внимание! Время в таблицах - местное (без учета летнего времени). Для получения всемирного времени необходимо вычесть поправку, которая равна -6 ч.
Смотрите также архив погоды в соседних городах и на ближайших метеорологических станциях:
Партнеры нашего сайта:      
Пояснения к столбцам:
  • Ветер - указаны скорость ветра в м/с - средняя за 10 мин, порывы в срок и между сроками (в фигурных скобках) и направление, откуда дует ветер: С - северный,
  • СВ - северо-восточный, В - восточный, ЮВ - юго-восточный, Ю - южный, ЮЗ - юго-западный, З - западный, СЗ - северо-западный.
  • Видимость - горизонтальная дальность видимости в метрах или километрах. При видимости от 1 до 10 км при отсутствии осадков обычно наблюдается дымка, при ухудшении видимости до 1 км и менее - туман. В сухую погоду видимость может ухудшаться дымом, пылью или мглою.
  • Явления - указаны атмосферные явления, наблюдавшиеся в срок или в последний час перед сроком; фигурными скобками обозначены явления, наблюдавшиеся между сроками (за 1-3 часа до срока); квадратными скобками обозначены град или гололедные отложения с указанием их диаметра в мм.
  • Облачность - указаны через наклонную черту общая и нижняя облачность в баллах и высота нижней границы облаков в метрах; квадратными скобками обозначены формы облаков: Ci - перистые, Cs - перисто-слоистые, Cc - перисто-кучевые, Ac - высококучевые, As - высокослоистые, Sc - слоисто-кучевые, Ns - слоисто-дождевые, Cu - кучевые, Cb - кучево-дождевые. Подробнее классификацию облаков см. в Атласе облаков (PDF).
  • T - Температура воздуха - температура, измеренная на высоте 2 м над землей.
  • Td - Температура точки росы - температура, при понижении до которой содержащийся в воздухе водяной пар достигнет насыщения.
  • f - Относительная влажность воздуха - влажноcть воздуха, измеренная на высоте 2 м над землей.
  • Te - Эффективная температура - температура, которую ощущает одетый по сезону человек в тени. Характеристика душности погоды. При расчете учитывается влияние влажности воздуха и скорости ветра на теплоощущения человека.
  • Tes - Эффективная температура на солнце - температура, которую ощущает человек, с поправкой на солнечный нагрев. Характеристика знойности погоды. Зависит от высоты солнца над горизонтом, облачности и скорости ветра. Ночью, в пасмурную погоду, а также при ветре 12 м/с и более поправка равна нулю.
  • P - Атмосферное давление - приведенное к уровню моря атмосферное давление.
  • Po - Атмосферное давление - измеренное на уровне метеостанции атмосферное давление.
  • Tmin - Минимальная температура - минимум температуры воздуха на высоте 2 м над землей.
  • Tmax - Максимальная температура - максимум температуры воздуха на высоте 2 м над землей.
  • R - Количество осадков - Количество выпавших осадков за период времени, мм. При наведении курсора мыши на число - период времени, за который выпало указанное количество осадков.
  • R24 - Количество осадков - Количество выпавших осадков за 24 часа, мм.
  • S - Снежный покров - Высота снежного покрова, см. При наведении курсора мыши на число - состояние снежного покрова и степень покрытия местности в баллах.